sat.trackr.live / text

‹ back to catalog

LEMUR-2-ARIANNA

NORAD 62699 · 2025-009CU

PAYLOAD ACTIVE UNKNOWN

§ Identity

Operator
Country
US
Launch date
2025-01-14
Launch site
AFWTR
Launch vehicle
Mass (kg)
RCS (m²)

Purposes: earth_obs

External: N2YO · Heavens-Above · Gunter

§ Orbital elements

Epoch: 2026-05-25T04:16:53.453280Z

Period
95.87 min
Inclination
97.6849°
Eccentricity
0.0002263
Mean motion
15.02045174 rev/d
Perigee alt
559.0 km
Apogee alt
562.2 km
Semi-major
6,938.7 km
B*
6.7825e-4
RAAN
226.7554°
Arg perigee
192.2000°
Mean anomaly
167.9170°
Rev number
7,410

§ Raw data

LEMUR-2-ARIANNA1 62699U 25009CU  26145.17839645  .00008845  00000+0  67825-3 0  99942 62699  97.6849 226.7554 0002263 192.2000 167.9170 15.02045174 74107

JSON: /api/v1/satellites/62699 · /tle

For live sub-satellite position, see the globe view (requires WebGL).

§ Visibility from observer

Set your observer location to see the next 7 days of passes ≥ 10°. The values pass through the URL so the page stays shareable.

No JS? Fill the form by hand. The geolocation button needs JavaScript.